Location: Banff
(51.1667°N, 115.5667°W)
Time: 13:30:44
(UTC+00:00)

Vanguard 1 Rocket - Pass Details

Date: 26 November 2020
Orbit: 655 x 4222 km, 34.3° (Epoch: 23 January)

Event Time Altitude Azimuth Distance (km) Brightness Sun altitude
Rises 13:20:37 0° 264° (W) 8,070 - -17.7°
Reaches altitude 10° 13:27:19 10° 258° (WSW) 6,626 - -16.6°
Exits shadow 13:28:07 11° 257° (WSW) 6,450 11.2 -16.5°
Maximum altitude 13:43:41 36° 202° (SSW) 3,408 10.2 -14.2°
Drops below altitude 10° 13:53:14 10° 141° (SE) 3,881 11.5 -12.7°
Sets 13:56:01 0° 131° (SE) 4,500 12.3 -12.3°
